VLG9MP LEPA-LEZL

Flight info

Callsign VLG9MP
Flight time 1h 22m
Altitude 37000
Route EPAMA N733 VLC M985 MAMIS
Aircraft A20N/M-SDE2E3FGHIRWXY/LB1

Departure

Time 2026-05-08 17:41
Airport Palma de Mallorca Airport (LEPA)

Arrival

Time 2026-05-08 19:03
Airport Seville Airport (LEZL)
Time Latitude Longitude Altitude Speed Heading
2026-05-08 17:23 39.54584 2.73371 36 ft 0 kts 345°
2026-05-08 17:33 39.54575 2.73374 36 ft 2 kts 343°
2026-05-08 17:34 39.54559 2.73381 36 ft 2 kts 337°
2026-05-08 17:34 39.54545 2.73392 33 ft 2 kts 294°
2026-05-08 17:34 39.54544 2.73413 35 ft 2 kts 249°
2026-05-08 17:34 39.54550 2.73429 33 ft 2 kts 239°
2026-05-08 17:35 39.54554 2.73438 34 ft 1 kts 237°
2026-05-08 17:35 39.54555 2.73440 34 ft 0 kts 237°
2026-05-08 17:37 39.54549 2.73427 33 ft 4 kts 237°
2026-05-08 17:37 39.54524 2.73377 36 ft 9 kts 238°
2026-05-08 17:38 39.54479 2.73283 36 ft 15 kts 238°
2026-05-08 17:38 39.54418 2.73207 36 ft 9 kts 174°
2026-05-08 17:38 39.54361 2.73209 33 ft 9 kts 220°
2026-05-08 17:38 39.54311 2.73133 36 ft 11 kts 202°
2026-05-08 17:39 39.54272 2.73152 34 ft 0 kts 124°
2026-05-08 17:40 39.54265 2.73168 36 ft 4 kts 115°
2026-05-08 17:40 39.54248 2.73223 35 ft 9 kts 110°
2026-05-08 17:40 39.54232 2.73312 33 ft 12 kts 94°
2026-05-08 17:40 39.54256 2.73452 34 ft 25 kts 63°
2026-05-08 17:41 39.54416 2.73786 34 ft 72 kts 58°
2026-05-08 17:41 39.54786 2.74558 32 ft 132 kts 59°
2026-05-08 17:41 39.55361 2.75729 226 ft 158 kts 58°
2026-05-08 17:41 39.55930 2.76872 927 ft 153 kts 59°
2026-05-08 17:42 39.56494 2.78070 1626 ft 152 kts 60°
2026-05-08 17:42 39.57046 2.79250 2187 ft 162 kts 60°
2026-05-08 17:42 39.57662 2.80573 2596 ft 181 kts 60°
2026-05-08 17:42 39.58357 2.82052 2994 ft 205 kts 60°
2026-05-08 17:43 39.59134 2.83697 3708 ft 216 kts 60°
2026-05-08 17:43 39.59918 2.85347 4717 ft 219 kts 59°
2026-05-08 17:43 39.60743 2.87082 5639 ft 227 kts 59°
2026-05-08 17:43 39.61574 2.88836 6483 ft 235 kts 59°
2026-05-08 17:44 39.62444 2.90675 7356 ft 241 kts 59°
2026-05-08 17:44 39.63573 2.92298 8193 ft 247 kts 31°
2026-05-08 17:44 39.65187 2.93014 9123 ft 246 kts
2026-05-08 17:44 39.66832 2.92613 9998 ft 244 kts 329°
2026-05-08 17:45 39.68099 2.91198 10840 ft 240 kts 299°
2026-05-08 17:45 39.68612 2.89286 11625 ft 236 kts 270°
2026-05-08 17:45 39.68455 2.87084 12304 ft 248 kts 262°
2026-05-08 17:45 39.68313 2.84808 12700 ft 271 kts 265°
2026-05-08 17:46 39.68209 2.82244 13073 ft 294 kts 265°
2026-05-08 17:46 39.68101 2.79482 13394 ft 318 kts 265°
2026-05-08 17:46 39.67976 2.76573 13763 ft 337 kts 265°
2026-05-08 17:46 39.67835 2.73509 13945 ft 338 kts 265°
2026-05-08 17:47 39.67688 2.70452 13991 ft 338 kts 265°
2026-05-08 17:47 39.67539 2.67424 14060 ft 340 kts 265°
2026-05-08 17:47 39.67385 2.64351 14644 ft 342 kts 265°
2026-05-08 17:47 39.67284 2.62327 15270 ft 341 kts 265°
2026-05-08 17:48 39.67075 2.58211 16396 ft 344 kts 265°
2026-05-08 17:48 39.66916 2.55076 17174 ft 347 kts 265°
2026-05-08 17:48 39.66757 2.51955 17958 ft 350 kts 265°
2026-05-08 17:48 39.66592 2.48761 18684 ft 353 kts 265°
2026-05-08 17:49 39.66429 2.45618 19412 ft 354 kts 264°
2026-05-08 17:49 39.66261 2.42401 20092 ft 357 kts 264°
2026-05-08 17:49 39.66096 2.39236 20754 ft 359 kts 264°
2026-05-08 17:49 39.65923 2.35961 21433 ft 362 kts 264°
2026-05-08 17:50 39.65607 2.32746 22106 ft 362 kts 258°
2026-05-08 17:50 39.65095 2.29557 22752 ft 365 kts 256°
2026-05-08 17:50 39.64546 2.26310 23407 ft 368 kts 256°
2026-05-08 17:50 39.64003 2.23067 23978 ft 370 kts 257°
2026-05-08 17:51 39.63465 2.19784 24589 ft 370 kts 257°
2026-05-08 17:51 39.62935 2.16504 25158 ft 371 kts 257°
2026-05-08 17:51 39.62414 2.13262 25687 ft 373 kts 257°
2026-05-08 17:51 39.61880 2.09928 26233 ft 374 kts 257°
2026-05-08 17:52 39.61346 2.06612 26765 ft 376 kts 258°
2026-05-08 17:52 39.60814 2.03311 27269 ft 377 kts 258°
2026-05-08 17:52 39.59739 1.96668 28215 ft 381 kts 258°
2026-05-08 17:53 39.59188 1.93273 28705 ft 382 kts 258°
2026-05-08 17:53 39.58645 1.89939 29139 ft 383 kts 258°
2026-05-08 17:53 39.58095 1.86571 29551 ft 385 kts 258°
2026-05-08 17:53 39.57537 1.83155 29968 ft 387 kts 258°
2026-05-08 17:54 39.56973 1.79708 30393 ft 387 kts 258°
2026-05-08 17:54 39.56421 1.76341 30839 ft 386 kts 258°
2026-05-08 17:54 39.55857 1.72909 31281 ft 386 kts 258°
2026-05-08 17:54 39.55307 1.69565 31820 ft 382 kts 258°
2026-05-08 17:55 39.54754 1.66210 32476 ft 376 kts 258°
2026-05-08 17:55 39.54213 1.62935 33111 ft 370 kts 258°
2026-05-08 17:55 39.53674 1.59677 33704 ft 365 kts 257°
2026-05-08 17:55 39.53146 1.56491 34212 ft 361 kts 257°
2026-05-08 17:56 39.52618 1.53310 34539 ft 360 kts 257°
2026-05-08 17:56 39.52087 1.50114 34816 ft 361 kts 257°
2026-05-08 17:56 39.51563 1.46971 35087 ft 361 kts 257°
2026-05-08 17:56 39.51032 1.43786 35371 ft 362 kts 257°
2026-05-08 17:57 39.50496 1.40583 35660 ft 361 kts 257°
2026-05-08 17:57 39.49969 1.37439 35930 ft 361 kts 257°
2026-05-08 17:57 39.49431 1.34240 36179 ft 361 kts 257°
2026-05-08 17:57 39.48899 1.31074 36437 ft 362 kts 257°
2026-05-08 17:58 39.48369 1.27925 36704 ft 361 kts 257°
2026-05-08 17:58 39.48008 1.25773 36877 ft 361 kts 257°
2026-05-08 17:58 39.47291 1.21521 36971 ft 361 kts 257°
2026-05-08 17:59 39.46226 1.15243 36974 ft 359 kts 257°
2026-05-08 17:59 39.45153 1.08933 36975 ft 359 kts 257°
2026-05-08 18:00 39.44076 1.02627 36974 ft 358 kts 257°
2026-05-08 18:00 39.42462 0.93221 36974 ft 357 kts 257°
2026-05-08 18:01 39.41383 0.86963 36979 ft 357 kts 256°
2026-05-08 18:01 39.40298 0.80679 36979 ft 357 kts 256°
2026-05-08 18:02 39.39396 0.75480 36984 ft 357 kts 256°
2026-05-08 18:02 39.38125 0.68169 36984 ft 357 kts 256°
2026-05-08 18:03 39.37033 0.61914 36972 ft 353 kts 256°
2026-05-08 18:03 39.35947 0.55717 36974 ft 354 kts 256°
2026-05-08 18:04 39.34862 0.49540 36968 ft 354 kts 256°
2026-05-08 18:04 39.33767 0.43333 36968 ft 354 kts 256°
2026-05-08 18:05 39.32674 0.37153 36967 ft 353 kts 256°
2026-05-08 18:05 39.31579 0.30984 36969 ft 353 kts 256°
2026-05-08 18:06 39.30475 0.24782 36972 ft 353 kts 255°
2026-05-08 18:06 39.29372 0.18609 36972 ft 353 kts 255°
2026-05-08 18:07 39.28270 0.12462 36970 ft 353 kts 255°
2026-05-08 18:07 39.27155 0.06264 36969 ft 353 kts 255°
2026-05-08 18:08 39.26049 0.00134 36970 ft 352 kts 255°
2026-05-08 18:08 39.24932 -0.06040 36966 ft 352 kts 255°
2026-05-08 18:09 39.23822 -0.12151 36965 ft 352 kts 255°
2026-05-08 18:09 39.22700 -0.18309 36964 ft 351 kts 255°
2026-05-08 18:10 39.21576 -0.24463 36964 ft 351 kts 255°
2026-05-08 18:10 39.20457 -0.30566 36958 ft 351 kts 255°
2026-05-08 18:11 39.19520 -0.35662 36961 ft 351 kts 254°
2026-05-08 18:11 39.18207 -0.42777 36959 ft 350 kts 254°
2026-05-08 18:12 39.17263 -0.47879 36953 ft 350 kts 254°
2026-05-08 18:12 39.16132 -0.53974 36951 ft 350 kts 254°
2026-05-08 18:13 39.14992 -0.60097 36957 ft 350 kts 254°
2026-05-08 18:13 39.13859 -0.66165 36956 ft 350 kts 254°
2026-05-08 18:14 39.12718 -0.72256 36949 ft 350 kts 254°
2026-05-08 18:14 39.11575 -0.78343 36944 ft 349 kts 254°
2026-05-08 18:15 39.10433 -0.84401 36947 ft 349 kts 254°
2026-05-08 18:15 39.09276 -0.90520 36945 ft 350 kts 253°
2026-05-08 18:16 39.08125 -0.96587 36946 ft 350 kts 253°
2026-05-08 18:16 39.06969 -1.02663 36954 ft 351 kts 253°
2026-05-08 18:17 39.05804 -1.08773 36961 ft 351 kts 253°
2026-05-08 18:17 39.04644 -1.14839 36955 ft 351 kts 253°
2026-05-08 18:18 39.03422 -1.20907 36956 ft 349 kts 250°
2026-05-08 18:18 39.01566 -1.26676 36957 ft 348 kts 243°
2026-05-08 18:19 38.99037 -1.31966 36945 ft 349 kts 235°
2026-05-08 18:19 38.96045 -1.36929 36957 ft 349 kts 234°
2026-05-08 18:20 38.93090 -1.41867 36959 ft 349 kts 234°
2026-05-08 18:20 38.90121 -1.46806 36960 ft 349 kts 234°
2026-05-08 18:21 38.87158 -1.51721 36952 ft 349 kts 234°
2026-05-08 18:21 38.84181 -1.56651 36962 ft 349 kts 234°
2026-05-08 18:22 38.81209 -1.61565 36959 ft 349 kts 234°
2026-05-08 18:22 38.78237 -1.66470 36956 ft 348 kts 234°
2026-05-08 18:23 38.75255 -1.71386 36959 ft 348 kts 233°
2026-05-08 18:23 38.72289 -1.76268 36956 ft 348 kts 233°
2026-05-08 18:24 38.69327 -1.81136 36954 ft 347 kts 233°
2026-05-08 18:24 38.66351 -1.86019 36948 ft 347 kts 233°
2026-05-08 18:25 38.63386 -1.90876 36949 ft 346 kts 233°
2026-05-08 18:25 38.60417 -1.95733 36943 ft 346 kts 233°
2026-05-08 18:26 38.57454 -2.00572 36939 ft 346 kts 233°
2026-05-08 18:26 38.54486 -2.05414 36932 ft 347 kts 233°
2026-05-08 18:27 38.51999 -2.09464 36947 ft 347 kts 233°
2026-05-08 18:27 38.48528 -2.15109 36950 ft 347 kts 233°
2026-05-08 18:28 38.45540 -2.19961 36946 ft 347 kts 233°
2026-05-08 18:28 38.42548 -2.24812 36943 ft 348 kts 232°
2026-05-08 18:29 38.39563 -2.29644 36936 ft 348 kts 232°
2026-05-08 18:29 38.36559 -2.34490 36936 ft 349 kts 232°
2026-05-08 18:30 38.33265 -2.39071 36945 ft 350 kts 228°
2026-05-08 18:30 38.29897 -2.43588 36943 ft 350 kts 228°
2026-05-08 18:31 38.26560 -2.48069 36934 ft 349 kts 228°
2026-05-08 18:31 38.23229 -2.52534 36927 ft 349 kts 228°
2026-05-08 18:32 38.19879 -2.57018 36922 ft 349 kts 228°
2026-05-08 18:32 38.16546 -2.61472 36916 ft 349 kts 227°
2026-05-08 18:33 38.13207 -2.65929 36918 ft 348 kts 228°
2026-05-08 18:33 38.09858 -2.70393 36921 ft 348 kts 227°
2026-05-08 18:34 38.06506 -2.74854 36926 ft 349 kts 227°
2026-05-08 18:34 38.03168 -2.79288 36914 ft 350 kts 227°
2026-05-08 18:35 37.99804 -2.83755 36916 ft 350 kts 227°
2026-05-08 18:35 37.96449 -2.88197 36912 ft 349 kts 227°
2026-05-08 18:36 37.93089 -2.92642 36912 ft 351 kts 227°
2026-05-08 18:36 37.89728 -2.97084 36899 ft 350 kts 227°
2026-05-08 18:37 37.86340 -3.01554 36901 ft 351 kts 227°
2026-05-08 18:37 37.82965 -3.06001 36897 ft 350 kts 227°
2026-05-08 18:38 37.79592 -3.10440 36896 ft 350 kts 227°
2026-05-08 18:38 37.76320 -3.15026 36886 ft 349 kts 234°
2026-05-08 18:39 37.74046 -3.20417 36905 ft 353 kts 246°
2026-05-08 18:39 37.72988 -3.26521 36900 ft 364 kts 259°
2026-05-08 18:40 37.72667 -3.32949 36895 ft 366 kts 259°
2026-05-08 18:40 37.72314 -3.39361 36897 ft 364 kts 258°
2026-05-08 18:41 37.71957 -3.45744 36900 ft 365 kts 258°
2026-05-08 18:41 37.71594 -3.52162 36909 ft 366 kts 258°
2026-05-08 18:42 37.71237 -3.58525 36897 ft 364 kts 258°
2026-05-08 18:42 37.70873 -3.64898 36891 ft 364 kts 258°
2026-05-08 18:43 37.70504 -3.71275 36902 ft 364 kts 258°
2026-05-08 18:43 37.70134 -3.77641 36886 ft 362 kts 258°
2026-05-08 18:44 37.69761 -3.83995 36890 ft 365 kts 258°
2026-05-08 18:44 37.69382 -3.90346 36886 ft 364 kts 258°
2026-05-08 18:45 37.68999 -3.96752 36886 ft 365 kts 258°
2026-05-08 18:45 37.68613 -4.03127 36891 ft 365 kts 258°
2026-05-08 18:46 37.68223 -4.09499 36547 ft 364 kts 258°
2026-05-08 18:46 37.68025 -4.12733 36286 ft 364 kts 258°
2026-05-08 18:46 37.67828 -4.15915 36037 ft 365 kts 258°
2026-05-08 18:47 37.67631 -4.19093 35788 ft 365 kts 258°
2026-05-08 18:47 37.67430 -4.22309 35396 ft 367 kts 258°
2026-05-08 18:47 37.67228 -4.25503 34632 ft 372 kts 258°
2026-05-08 18:47 37.67019 -4.28786 33748 ft 377 kts 258°
2026-05-08 18:48 37.66809 -4.32106 32948 ft 376 kts 258°
2026-05-08 18:48 37.66601 -4.35392 32078 ft 377 kts 259°
2026-05-08 18:48 37.66390 -4.38677 31298 ft 377 kts 259°
2026-05-08 18:48 37.66177 -4.41985 30465 ft 378 kts 259°
2026-05-08 18:49 37.65965 -4.45302 29933 ft 373 kts 259°
2026-05-08 18:49 37.65760 -4.48514 29408 ft 368 kts 259°
2026-05-08 18:49 37.65554 -4.51719 28799 ft 364 kts 259°
2026-05-08 18:49 37.65352 -4.54845 28225 ft 359 kts 259°
2026-05-08 18:50 37.65146 -4.57988 27608 ft 355 kts 259°
2026-05-08 18:50 37.64942 -4.61102 27031 ft 352 kts 259°
2026-05-08 18:50 37.64741 -4.64140 26445 ft 349 kts 259°
2026-05-08 18:50 37.64539 -4.67188 25864 ft 346 kts 259°
2026-05-08 18:51 37.64338 -4.70202 25237 ft 345 kts 259°
2026-05-08 18:51 37.64139 -4.73188 24644 ft 344 kts 259°
2026-05-08 18:51 37.63936 -4.76210 24103 ft 343 kts 259°
2026-05-08 18:51 37.63732 -4.79229 23486 ft 343 kts 259°
2026-05-08 18:52 37.63531 -4.82224 22866 ft 341 kts 259°
2026-05-08 18:52 37.63332 -4.85177 22279 ft 339 kts 259°
2026-05-08 18:52 37.63131 -4.88150 21672 ft 337 kts 259°
2026-05-08 18:52 37.62932 -4.91067 21081 ft 336 kts 259°
2026-05-08 18:53 37.62731 -4.94002 20484 ft 334 kts 259°
2026-05-08 18:53 37.62530 -4.96918 19855 ft 334 kts 259°
2026-05-08 18:53 37.62328 -4.99838 19247 ft 333 kts 259°
2026-05-08 18:53 37.62128 -5.02726 18659 ft 332 kts 259°
2026-05-08 18:54 37.61924 -5.05659 18000 ft 333 kts 259°
2026-05-08 18:54 37.61724 -5.08543 17407 ft 331 kts 259°
2026-05-08 18:54 37.61522 -5.11431 16787 ft 330 kts 259°
2026-05-08 18:54 37.61319 -5.14315 16175 ft 328 kts 259°
2026-05-08 18:55 37.60922 -5.19940 14907 ft 328 kts 259°
2026-05-08 18:55 37.60673 -5.22759 14353 ft 324 kts 255°
2026-05-08 18:55 37.60064 -5.25484 13699 ft 320 kts 245°
2026-05-08 18:56 37.59445 -5.27161 13311 ft 317 kts 239°
2026-05-08 18:56 37.58256 -5.29488 12706 ft 314 kts 233°
2026-05-08 18:56 37.56635 -5.32500 11915 ft 312 kts 234°
2026-05-08 18:56 37.55836 -5.34003 11532 ft 312 kts 234°
2026-05-08 18:57 37.54226 -5.37040 10724 ft 313 kts 234°
2026-05-08 18:57 37.53419 -5.38558 10318 ft 314 kts 234°
2026-05-08 18:57 37.52251 -5.40756 9990 ft 306 kts 234°
2026-05-08 18:57 37.51093 -5.42936 9860 ft 292 kts 233°
2026-05-08 18:58 37.50002 -5.44986 9737 ft 278 kts 233°
2026-05-08 18:58 37.48937 -5.46983 9357 ft 274 kts 233°
2026-05-08 18:58 37.47867 -5.48983 8884 ft 274 kts 233°
2026-05-08 18:58 37.46803 -5.50972 8420 ft 274 kts 233°
2026-05-08 18:59 37.45754 -5.52931 7841 ft 272 kts 233°
2026-05-08 18:59 37.44695 -5.54912 7357 ft 272 kts 233°
2026-05-08 18:59 37.43629 -5.56905 6855 ft 274 kts 233°
2026-05-08 18:59 37.42580 -5.58909 6390 ft 277 kts 238°
2026-05-08 19:00 37.41917 -5.61194 5945 ft 281 kts 257°
2026-05-08 19:00 37.41844 -5.63652 5520 ft 284 kts 269°
2026-05-08 19:00 37.41887 -5.66105 5154 ft 276 kts 267°
2026-05-08 19:00 37.41882 -5.68508 4586 ft 275 kts 266°
2026-05-08 19:01 37.41863 -5.70871 4066 ft 271 kts 265°
2026-05-08 19:01 37.41855 -5.73218 3673 ft 263 kts 266°
2026-05-08 19:01 37.41846 -5.75437 3541 ft 243 kts 266°
2026-05-08 19:01 37.41838 -5.77515 3255 ft 230 kts 265°
2026-05-08 19:02 37.41833 -5.79371 3255 ft 200 kts 265°
2026-05-08 19:02 37.41848 -5.81128 2496 ft 206 kts 268°
2026-05-08 19:02 37.41864 -5.82836 1626 ft 191 kts 265°
2026-05-08 19:02 37.41795 -5.84457 952 ft 173 kts 266°
2026-05-08 19:03 37.41801 -5.85902 475 ft 157 kts 267°
2026-05-08 19:03 37.41799 -5.87180 246 ft 139 kts 268°
2026-05-08 19:03 37.41793 -5.88311 106 ft 108 kts 268°
2026-05-08 19:03 37.41786 -5.88997 103 ft 49 kts 273°
2026-05-08 19:04 37.41815 -5.89185 100 ft 4 kts 291°
2026-05-08 19:04 37.41846 -5.89260 99 ft 12 kts 321°
2026-05-08 19:04 37.41897 -5.89295 99 ft 5 kts 330°
2026-05-08 19:04 37.41921 -5.89311 100 ft 5 kts 330°
2026-05-08 19:05 37.41986 -5.89358 99 ft 17 kts 329°
2026-05-08 19:05 37.42078 -5.89479 97 ft 21 kts 314°
2026-05-08 19:05 37.42147 -5.89570 96 ft 19 kts 314°
2026-05-08 19:05 37.42261 -5.89715 93 ft 11 kts 316°
2026-05-08 19:06 37.42278 -5.89726 93 ft 5 kts 331°
2026-05-08 19:06 37.42314 -5.89756 96 ft 8 kts 316°
2026-05-08 19:06 37.42342 -5.89791 94 ft 0 kts 314°